EN

Hourly Weather Labedz

Today, 3 August, Tuesday

Time Temperature Precipitation Wind Pressure Humidity
00:00 +15°C° 0 mm 2 mps 739 mmHg 87%
01:00 +13°C° 0 mm 3 mps 740 mmHg 88%
02:00 +13°C° 0 mm 3 mps 740 mmHg 88%
03:00 +14°C° 0 mm 2 mps 740 mmHg 89%
04:00 +13°C° 0 mm 2 mps 740 mmHg 89%
05:00 +15°C° 0 mm 2 mps 740 mmHg 84%
06:00 +16°C° 0 mm 2 mps 740 mmHg 80%
07:00 +17°C° 0 mm 2 mps 741 mmHg 75%
08:00 +19°C° 0 mm 2 mps 741 mmHg 68%
09:00 +20°C° 0 mm 2 mps 741 mmHg 60%
10:00 +23°C° 0 mm 2 mps 741 mmHg 53%
11:00 +23°C° 0.2 mm 2 mps 740 mmHg 52%
12:00 +24°C° 0.2 mm 2 mps 740 mmHg 51%
13:00 +24°C° 0.2 mm 2 mps 740 mmHg 50%
14:00 +24°C° 0 mm 2 mps 740 mmHg 54%
15:00 +23°C° 0 mm 1 mps 739 mmHg 57%
16:00 +23°C° 0 mm 1 mps 739 mmHg 60%
17:00 +22°C° 0 mm 1 mps 739 mmHg 62%
18:00 +22°C° 0 mm 1 mps 739 mmHg 63%
19:00 +21°C° 0 mm 1 mps 739 mmHg 65%
20:00 +20°C° 0.1 mm 1 mps 739 mmHg 66%
21:00 +20°C° 0.1 mm 1 mps 739 mmHg 68%
22:00 +18°C° 0.1 mm 2 mps 739 mmHg 70%
23:00 +18°C° 0.1 mm 1 mps 739 mmHg 74%

Tomorrow, 4 August, Wednesday

Time Temperature Precipitation Wind Pressure Humidity
00:00 +18°C° 0.1 mm 1 mps 739 mmHg 77%
01:00 +16°C° 0.1 mm 1 mps 739 mmHg 80%
02:00 +16°C° 0 mm 1 mps 739 mmHg 81%
03:00 +16°C° 0 mm 1 mps 739 mmHg 82%
04:00 +15°C° 0 mm 1 mps 739 mmHg 84%
05:00 +16°C° 0.1 mm 1 mps 739 mmHg 82%
06:00 +17°C° 0.1 mm 2 mps 739 mmHg 80%
07:00 +18°C° 0.1 mm 2 mps 739 mmHg 78%
08:00 +18°C° 0.4 mm 2 mps 739 mmHg 82%
09:00 +17°C° 0.4 mm 3 mps 739 mmHg 85%
10:00 +17°C° 0.4 mm 3 mps 739 mmHg 89%
11:00 +17°C° 0.1 mm 2 mps 739 mmHg 86%
12:00 +17°C° 0.1 mm 2 mps 739 mmHg 84%
13:00 +19°C° 0.1 mm 1 mps 739 mmHg 81%
14:00 +20°C° 0 mm 1 mps 739 mmHg 77%
15:00 +20°C° 0 mm 1 mps 739 mmHg 73%
16:00 +21°C° 0 mm 1 mps 739 mmHg 69%
17:00 +19°C° 0 mm 2 mps 739 mmHg 74%
18:00 +18°C° 0 mm 2 mps 739 mmHg 78%
19:00 +17°C° 0 mm 2 mps 739 mmHg 83%
20:00 +17°C° 0 mm 2 mps 739 mmHg 86%
21:00 +16°C° 0 mm 2 mps 739 mmHg 90%
22:00 +15°C° 0 mm 2 mps 739 mmHg 93%
23:00 +15°C° 0 mm 2 mps 739 mmHg 94%

Day after tomorrow, 5 August, Thursday

Time Temperature Precipitation Wind Pressure Humidity
00:00 +14°C° 0 mm 2 mps 739 mmHg 95%
01:00 +14°C° 0 mm 2 mps 738 mmHg 96%
02:00 +14°C° 0 mm 2 mps 738 mmHg 96%
03:00 +14°C° 0 mm 2 mps 738 mmHg 96%
04:00 +14°C° 0 mm 2 mps 738 mmHg 96%
05:00 +14°C° 0.3 mm 2 mps 738 mmHg 94%
06:00 +15°C° 0.3 mm 2 mps 737 mmHg 93%
07:00 +14°C° 0.3 mm 3 mps 737 mmHg 92%
08:00 +15°C° 0.6 mm 2 mps 737 mmHg 92%
09:00 +16°C° 0.6 mm 2 mps 737 mmHg 92%
10:00 +16°C° 0.6 mm 2 mps 737 mmHg 92%
11:00 +16°C° 0.2 mm 2 mps 737 mmHg 91%
12:00 +16°C° 0.2 mm 3 mps 737 mmHg 91%
13:00 +16°C° 0.2 mm 3 mps 737 mmHg 90%
14:00 +17°C° 0.1 mm 3 mps 736 mmHg 88%
15:00 +17°C° 0.1 mm 3 mps 736 mmHg 86%
16:00 +18°C° 0.1 mm 3 mps 735 mmHg 84%
17:00 +17°C° 0.6 mm 3 mps 735 mmHg 87%
18:00 +17°C° 0.6 mm 3 mps 734 mmHg 91%
19:00 +16°C° 0.6 mm 3 mps 734 mmHg 95%
20:00 +16°C° 0.2 mm 2 mps 734 mmHg 95%
21:00 +16°C° 0.2 mm 2 mps 733 mmHg 96%
22:00 +16°C° 0.2 mm 2 mps 733 mmHg 96%
23:00 +16°C° 0.7 mm 2 mps 733 mmHg 96%

6 August, Friday

Time Temperature Precipitation Wind Pressure Humidity
00:00 +16°C° 0.7 mm 3 mps 733 mmHg 97%
01:00 +16°C° 0.7 mm 3 mps 732 mmHg 97%
02:00 +15°C° 0.4 mm 4 mps 732 mmHg 97%
03:00 +14°C° 0.4 mm 4 mps 732 mmHg 96%
04:00 +14°C° 0.4 mm 5 mps 732 mmHg 96%
05:00 +14°C° 0.3 mm 5 mps 732 mmHg 96%
06:00 +14°C° 0.3 mm 5 mps 732 mmHg 96%
07:00 +14°C° 0.3 mm 5 mps 733 mmHg 96%
08:00 +15°C° 0.2 mm 5 mps 733 mmHg 94%
09:00 +15°C° 0.2 mm 5 mps 733 mmHg 92%
10:00 +16°C° 0.2 mm 5 mps 734 mmHg 90%
11:00 +16°C° 0.2 mm 5 mps 734 mmHg 86%
12:00 +17°C° 0.2 mm 5 mps 734 mmHg 82%
13:00 +19°C° 0.2 mm 5 mps 734 mmHg 78%
14:00 +19°C° 0.2 mm 5 mps 734 mmHg 76%
15:00 +20°C° 0.2 mm 4 mps 734 mmHg 74%
16:00 +20°C° 0.2 mm 4 mps 735 mmHg 72%
17:00 +19°C° 0 mm 3 mps 735 mmHg 76%
18:00 +18°C° 0 mm 2 mps 735 mmHg 79%
19:00 +18°C° 0 mm 2 mps 735 mmHg 82%
20:00 +18°C° 0 mm 1 mps 735 mmHg 84%
21:00 +16°C° 0 mm 1 mps 735 mmHg 86%
22:00 +16°C° 0 mm 1 mps 736 mmHg 88%
23:00 +15°C° 0 mm 2 mps 736 mmHg 89%

7 August, Saturday

Time Temperature Precipitation Wind Pressure Humidity
00:00 +15°C° 0 mm 2 mps 736 mmHg 90%
01:00 +15°C° 0 mm 2 mps 736 mmHg 92%
02:00 +15°C° 0 mm 2 mps 736 mmHg 92%
03:00 +14°C° 0 mm 2 mps 736 mmHg 93%
04:00 +14°C° 0 mm 2 mps 737 mmHg 94%
05:00 +16°C° 0 mm 2 mps 737 mmHg 88%
06:00 +17°C° 0 mm 2 mps 737 mmHg 83%
07:00 +19°C° 0 mm 3 mps 737 mmHg 77%
08:00 +20°C° 0 mm 3 mps 737 mmHg 70%
09:00 +22°C° 0 mm 3 mps 737 mmHg 63%
10:00 +25°C° 0 mm 3 mps 737 mmHg 56%
11:00 +26°C° 0 mm 3 mps 737 mmHg 53%
12:00 +27°C° 0 mm 3 mps 737 mmHg 49%
13:00 +27°C° 0 mm 3 mps 737 mmHg 46%
14:00 +28°C° 0 mm 3 mps 737 mmHg 46%
15:00 +28°C° 0 mm 3 mps 737 mmHg 45%
16:00 +28°C° 0 mm 3 mps 737 mmHg 45%
17:00 +26°C° 0 mm 3 mps 737 mmHg 52%
18:00 +25°C° 0 mm 3 mps 737 mmHg 59%
19:00 +22°C° 0 mm 3 mps 737 mmHg 67%
20:00 +22°C° 0 mm 3 mps 737 mmHg 68%
21:00 +21°C° 0 mm 4 mps 737 mmHg 70%
22:00 +20°C° 0 mm 4 mps 737 mmHg 72%
23:00 +20°C° 0 mm 5 mps 737 mmHg 72%

8 August, Sunday

Time Temperature Precipitation Wind Pressure Humidity
00:00 +20°C° 0 mm 5 mps 736 mmHg 72%
01:00 +19°C° 0 mm 5 mps 736 mmHg 72%
02:00 +20°C° 0 mm 5 mps 736 mmHg 71%
03:00 +20°C° 0 mm 5 mps 736 mmHg 69%
04:00 +20°C° 0 mm 5 mps 735 mmHg 68%
05:00 +20°C° 0 mm 5 mps 736 mmHg 69%
06:00 +20°C° 0 mm 5 mps 736 mmHg 70%
07:00 +20°C° 0 mm 5 mps 737 mmHg 71%
08:00 +20°C° 0.5 mm 5 mps 738 mmHg 76%
09:00 +20°C° 0.5 mm 5 mps 738 mmHg 82%
10:00 +19°C° 0.5 mm 5 mps 739 mmHg 88%
11:00 +20°C° 0.2 mm 5 mps 739 mmHg 84%
12:00 +21°C° 0.2 mm 5 mps 740 mmHg 79%
13:00 +21°C° 0.2 mm 5 mps 740 mmHg 75%
14:00 +20°C° 0.8 mm 5 mps 741 mmHg 80%
15:00 +18°C° 0.8 mm 4 mps 741 mmHg 85%
16:00 +17°C° 0.8 mm 4 mps 742 mmHg 90%
17:00 +17°C° 0.1 mm 3 mps 742 mmHg 90%
18:00 +17°C° 0.1 mm 3 mps 742 mmHg 89%
19:00 +17°C° 0.1 mm 2 mps 742 mmHg 88%
20:00 +17°C° 0 mm 3 mps 743 mmHg 89%
21:00 +16°C° 0 mm 3 mps 743 mmHg 89%
22:00 +16°C° 0 mm 3 mps 743 mmHg 90%
23:00 +16°C° 0 mm 3 mps 743 mmHg 89%
Show more